Погода в Дашогузе

Поиск расширенной информации на нашем сайте:

Полезная информация:

Новости сайта



02.01.2020
Опубликован Долгосрочный прогноз погоды по городам России и ближнего зарубежья на январь 2020 года.
Карты: Прогноз на январь и февраль 2020 года, Сравнение прогнозируемой аномалии приземной температуры воздуха на январь 2020 года по разным моделям.




Погода в Дашогузе - сегодня

Время (UTC), дата Ветер
(°,м/с) 
Видим.   Явления Облачность Т
(°С)
Тd
(°С)
f(%) Тe
(°С)
Pmin
(гПа)
dP
(гПа)
Po
(мм)
O2
(г/м3)
Тmin Tmax R s Состояние
почвы
00 19.01.20 340 (С) 4000 м    10/0 средняя 
[Ac As]
+0.2 -2.5 82 -1  1019.4  0.3  757  305           
03 19.01.20 240 (ЮЗ) 4000 м    10/10 300 м 
[Sc]
+0.6 -2 83 1020.4  1.1  757  305  +0.1        сухая 
06 19.01.20 240 (ЮЗ) 4000 м    9/9 700 м 
[Sc]
+1.5 -1 83 1021.9  1.5  759  304  +0.1         
09 19.01.20 260 (З) 10 км    9/9 480 м 
[Sc]
+3.1 -0.4 78 +1  1021.7  -0.2  758  302           
12 19.01.20 290 (З) 10 км    9/9 570 м 
[Sc]
+2.7 -0.9 77 1022.3  0.6  759  303    +0.4       
15 19.01.20 280 (З) 10 км    9/9 1110 м 
[Sc]
+1.5 -2 78 -1  1023.9  1.6  760  305    +3.6       
18 19.01.20 260 (З) 10 км    9/9 1110 м 
[Sc]
+0.6 -2.7 79 -1  1024.7  0.1  761  306    +3.6       
21 19.01.20 280 (З) 4000 м    9/9 800 м 
[Sc]
+0.4 -1.9 85 -2  1024.9  0.1  761  306           
00 20.01.20 320 (СЗ) 4000 м    10/10 480 м 
[St]
+0 -2.1 86 -2  1025.6  0.6  761  307           
03 20.01.20 300 (СЗ) 10 км    10/10 200 м 
[St]
-0.6 -3 84 -3  1025.9  0.3  761  308  -0.8        сухая 
06 20.01.20 280 (З) 4000 м    10/10 300 м 
[St]
-0.6 -2.4 88 -3  1027.3  1.4  762  308    -0.8       
09 20.01.20 290 (З) 10 км    10/9 1380 м 
[Sc]
+0.8 -2.8 77 -2  1026.6  -0.6  762  306           
12 20.01.20 280 (З) 10 км    9/9 1020 м 
[Sc]
+1.3 -4.6 65 1026  -0.6  762  306           
15 20.01.20 350 (С) 10 км    9/9 300 м 
[Sc]
-0.2 -2.9 82 -3  1027  0.9  762  308    +1.5  0.0     
18 20.01.20 340 (С) 10 км  {снег}  9/9 300 м 
[Sc]
-1 -3.2 85 -3  1027.1  0.1  762  309    +1.5       
21 20.01.20 020 (С) 10 км    9/9 480 м 
[Sc]
-1.8 -3.2 90 -3  1026.7  -0.4  762  309           
00 21.01.20 030 (СВ) 4000 м  слаб. снег  10/10 450 м 
[Ns]
-2.8 -4.1 91 -4  1026.5  -0.2  762  311           
03 21.01.20 320 (СЗ) 10 км    9/9 300 м 
[Sc]
-2.8 -4.8 86 -5  1026.8  0.3  762  311  -3.1    0.2     
06 21.01.20 310 (СЗ) 4000 м    9/9 600 м 
[Sc]
-1.8 -5.2 78 -4  1027.7  0.9  763  310  -3.1         
09 21.01.20 290 (З) 10 км    9/9 700 м 
[Sc]
-0.7 -6.7 64 -3  1026.9  -0.8  762  309           
12 21.01.20 280 (З) 10 км    9/9 870 м 
[Sc]
-0.4 -5.2 70 -3  1026.8  -0.1  762  308           
15 21.01.20 260 (З) 10 км    9/9 1260 м 
[Sc]
-1.2 -4.1 81 -3  1027.7  0.9  763  309    +0.4       
18 21.01.20 230 (ЮЗ) 10 км  в посл. час снег  9/9 1000 м 
[Sc]
-1.4 -2.8 90 -4  1027.9  0.2  763  309    +0.4       
21 21.01.20 220 (ЮЗ) 10 км    9/9 1170 м 
[Sc]
-1.8 -2.9 92 -5  1027.5  -0.4  763  310           
00 22.01.20 210 (ЮЗ) 10 км    9/9 1300 м 
[Sc]
-2.2 -4 87 -5  1027.2  -0.3  762  310           
Время (UTC), дата Ветер
(°,м/с) 
Видим.   Явления Облачность Т
(°С)
Тd
(°С)
f(%) Тe
(°С)
Pmin
(гПа)
dP
(гПа)
Po
(мм)
O2
(г/м3)
Тmin Tmax R s Состояние
почвы

Для получения пояснительной информации подведите курсор к названию столбца.

ПОГОДА в Дашогузе - архив

Всё, что Вы хотите узнать о погоде в Дашогузе - удобно и подробно!

Выберите нужную дату (начиная с 1 января 2019* года) и нажмите кнопку "Найти".
Будут отображены архивные сводки погоды по пункту Дашогуз, начиная с указанной даты.


Отображать данные в формате CSV (для использования в таблицах Excel)


Внимание! Наш архив погоды предназначен исключительно для личного некоммерческого использования в познавательных целях. Если Вам необходимы официальные справки о состоянии погоды (для производственных, юридических, коммерческих и т.п. целей), обращайтесь в органы Росгидромета.

*Примечание: данная дата относится к архиву по метеостанциям СССР (Россия, СНГ, Балтия).
Архив по метеостанциям Зарубежной Европы и Азии (кроме Китая) хранится 10 дней, по другим регионам земного шара (Китай, Африка, Америка, Австралия, Океания) - 1 день.

Дашогуз - район местоположения метеостанции


Название, широта, долгота, высота метеостанции:
Дашогуз (Ташауз) 41.8°ш. 59.8°д. 82 м над ур. моря [Туркменистан]

Дополнительная информация

В oтличие oт бoльшинства пoгoдных сайтoв мы публикуем пoдрoбную метеoинфoрмацию в детальнoм прoфессиoнальнoм фoрмате.

Характеристики температуры и влажнoсти вoздуха измеряются на высoте 2 м в тени вдали oт зданий и деревьев.
Скoрoсть ветра измеряется на высoте 10 м (на урoвне рoста челoвека скoрoсть ветра ниже в 1.5-2 раза). Если метеoстанция нахoдится в гoрoде или в лесу, тo скoрoсть ветра занижена на 2-4 м/с пo сравнению с oткрытым местoм. Скoрoсть ветра над акватoриями крупных рек и oзёр, а также на вершинах хoлмoв на 2-5 м/с выше, чем в oбычных услoвиях.
Атмoсфернoе давление в разных тoчках местнoсти мoжет значительнo oтличаться oт давления на метеoстанции, в зависимoсти oт услoвий рельефа (при пoдъёме на 10 м давление пoнижается примернo на 1 мм рт.ст.).